This demonstration page uses our WeatherBlox Daily Observations layout. Learn more.

Left ArrowRight Arrow

39.01783, -85.05884

Hourly Observations for August 5, 2015

Temp ( °F °C ) Dew Point ( °F °C ) Humidity (%) Winds ( mph kmh ) Pressure ( in mb ) Visibility ( mi km ) Precip ( " mm )
12:52 am 00:52 Cloudy 73 22.8 60 15.6 64 64 NNE 3 6 29.98 1015 10 16.0934 N/A
1:52 am 01:52 Cloudy 70 21.1 62 16.7 76 76 NW 5 7 29.99 1016 10 16.0934 N/A
2:52 am 02:52 Cloudy 70 21.1 62 16.7 76 76 N 3 6 30 1016 10 16.0934 N/A
3:52 am 03:52 Cloudy 69 20.6 62 16.7 78 78 N N/A 30.01 1016 10 16.0934 N/A
4:52 am 04:52 Mostly Cloudy 66 18.9 62 16.7 87 87 N N/A 30.01 1016 10 16.0934 N/A
5:52 am 05:52 Partly Cloudy 64 17.8 61 16.1 90 90 N N/A 30.02 1017 10 16.0934 N/A
6:52 am 06:52 Partly Cloudy 65 18.3 61 16.1 87 87 N N/A 30.03 1017 10 16.0934 N/A
7:52 am 07:52 Partly Cloudy 68 20 63 17.2 84 84 N 3 6 30.03 1017 10 16.0934 N/A
8:52 am 08:52 Mostly Sunny 73 22.8 61 16.1 66 66 E 5 7 30.03 1017 10 16.0934 N/A
9:52 am 09:52 Partly Cloudy 75 23.9 61 16.1 62 62 VRB 5 7 30.05 1018 10 16.0934 N/A
10:52 am 10:52 Partly Cloudy 78 25.6 60 15.6 54 54 E 6 9 30.05 1018 10 16.0934 N/A
11:52 am 11:52 Mostly Cloudy 80 26.7 59 15 49 49 ENE 6 9 30.04 1017 10 16.0934 N/A
12:52 pm 12:52 Mostly Cloudy 80 26.7 61 16.1 52 52 ENE 6 9 30.03 1017 10 16.0934 N/A
1:52 pm 13:52 Mostly Cloudy 81 27.2 61 16.1 51 51 VRB 6 9 30.03 1017 10 16.0934 N/A
2:52 pm 14:52 Mostly Cloudy 83 28.3 59 15 44 44 N N/A 30 1016 10 16.0934 N/A
3:52 pm 15:52 Mostly Cloudy 84 28.9 60 15.6 44 44 N N/A 29.99 1016 10 16.0934 N/A
4:52 pm 16:52 Mostly Cloudy 85 29.4 62 16.7 46 46 N N/A 29.98 1015 10 16.0934 N/A
5:52 pm 17:52 Cloudy 83 28.3 62 16.7 49 49 N N/A 29.97 1015 10 16.0934 N/A
6:52 pm 18:52 Cloudy 81 27.2 63 17.2 54 54 N N/A 29.96 1015 10 16.0934 N/A
7:52 pm 19:52 Cloudy 80 26.7 63 17.2 56 56 ESE 6 9 29.96 1015 10 16.0934 N/A
8:52 pm 20:52 Cloudy 78 25.6 63 17.2 60 60 E 10 17 29.96 1014 10 16.0934 N/A
9:52 pm 21:52 Cloudy 77 25 64 17.8 64 64 ENE 10 17 29.95 1014 10 16.0934 N/A
10:52 pm 22:52 Cloudy 76 24.4 63 17.2 64 64 E 7 11 29.96 1014 10 16.0934 N/A
11:52 pm 23:52 Cloudy 76 24.4 61 16.1 60 60 E 10 17 29.94 1014 10 16.0934 N/A

Powered by AerisWeather